Regional Weather Roundup
Issued by NWS Sioux Falls, SD

Home | Current Version | Previous Version | Text Only | Print | Product List | Glossary Off
Versions: 1 2 3 4 5 6 7 8 9 10 11 12 13 14 15 16 17 18 19 20 21 22 23 24 25 26 27 28 29 30 31 32 33 34 35 36 37 38 39 40 41 42 43 44 45 46 47 48 49 50

000
ASUS43 KFSD 010310
RWRFSD

WEATHER ROUNDUP FOR SE SOUTH DAKOTA/SW MINNESOTA/NW IOWA
NATIONAL WEATHER SERVICE SIOUX FALLS SD
1000 PM CDT TUE JUN 30 2015

NOTE: "FAIR" INDICATES FEW OR NO CLOUDS BELOW 12,000 FEET WITH NO
SIGNIFICANT WEATHER AND OR OBSTRUCTIONS TO VISIBILITY.


SDZ038>040-050-052>070-010400-
SOUTHEAST SOUTH DAKOTA

CITY           SKY/WX    TMP DP  RH WIND       PRES   REMARKS
BROOKINGS      MOCLDY    68  61  77 E12       29.92S
CHAMBERLAIN    MOCLDY    68  64  87 SE8       29.87R
HURON          LGT RAIN  69  68  96 CALM      29.88R FOG
MADISON        FAIR      66  66 100 SE5       29.90S
MITCHELL       CLOUDY    69  68  96 SE8       29.87F
SIOUX FALLS    CLOUDY    68  65  90 SE3       29.90R
WINNER         FAIR      72  61  68 SE15      29.86S
YANKTON        CLOUDY    68  66  94 S7        29.87F
$$

MNZ071-072-080-081-089-090-097-098-010400-
SOUTHWEST MINNESOTA

CITY           SKY/WX    TMP DP  RH WIND       PRES   REMARKS
FAIRMONT       CLOUDY    66  59  77 CALM      29.94R
JACKSON        CLOUDY    68  61  77 E3        29.95R
LUVERNE        CLOUDY    70  63  78 E6        29.92S
MARSHALL       PTCLDY    66  61  82 SE6         N/A
MONTEVIDEO     PTCLDY    64  61  88 SE3       29.92S
PIPESTONE      CLOUDY    66  63  88 SE6       29.92S
REDWOOD FALLS  PTCLDY    67  63  87 E5        29.92S
TRACY          MOCLDY    66  63  90 CALM      29.93F
WINDOM         CLOUDY    66  61  82 CALM      29.94S
WORTHINGTON    CLOUDY    66  59  77 E7        29.93F
$$

IAZ001>003-012>014-020>022-031-032-NEZ013-014-SDZ071-010400-
NORTHWEST IOWA

CITY           SKY/WX    TMP DP  RH WIND       PRES   REMARKS
CHEROKEE       CLOUDY    71  70  98 E3        29.91R
DENISON        CLOUDY    70  68  94 CALM      29.89R
ESTHERVILLE    CLOUDY    66  62  87 E3        29.94R
LE MARS          N/A     70  70 100 CALM      29.90F FOG
ORANGE CITY    CLOUDY    68  66  94 NE3       29.91F
SHELDON        CLOUDY    68  68 100 E7        29.90F
SIOUX CITY     LGT RAIN  70  65  84 NE3       29.89S
SPENCER        CLOUDY    69  62  78 E7        29.93R
STORM LAKE     CLOUDY    70  66  88 E6G13     29.94R
$$

ABBREVIATIONS USED IN REMARKS
   TC - TEMPERATURE IN CELSIUS
  WCI - WIND CHILL INDEX
   HX - HEAT INDEX
  VSB - VISIBILITY



USA.gov is the U.S. government's official web portal to all federal, state and local government web resources and services.